Location: Cantaing
(50.1487°N, 3.1675°E)
Time: 15:25:04
(UTC+00:00)

Meteor 2-19 Rocket - Visible Passes

Search period start: 19 April 2026 00:00
Search period end: 29 April 2026 00:00
Orbit: 937 x 957 km, 82.5° (Epoch: 19 April)

Date Brightness Start Highest point End Pass type
(mag) Time Alt. Az. Time Alt. Az. Time Alt. Az.
19 Apr 7.2 20:55:40 10° NW 20:58:34 14° WNW 21:01:28 10° WSW visible
20 Apr 5.4 19:25:42 10° NNW 19:31:37 51° W 19:37:30 10° SSW visible
21 Apr 6.2 19:42:50 10° NNW 19:48:18 35° W 19:53:44 10° SSW visible
22 Apr 6.8 20:00:10 10° NNW 20:04:54 24° W 20:09:36 10° SW visible
23 Apr 7.2 20:17:51 10° NW 20:21:24 16° WNW 20:24:56 10° WSW visible
24 Apr 7.7 20:37:05 10° WNW 20:37:49 10° WNW 20:38:31 10° W visible
26 Apr 6.8 19:22:38 10° NNW 19:27:41 27° W 19:32:40 10° SW visible
27 Apr 7.2 19:40:09 10° NW 19:44:12 19° W 19:48:15 10° WSW visible
28 Apr 7.5 19:58:22 10° NW 20:00:39 12° WNW 20:02:55 10° W visible
